FW3092 Weather Reports


Display with metric or nautical units.
time (UTC)temp
F
wind
direction
speed
MPH
gust
MPH
rain 1hr
in
rain 24hr
in
rain mn
in
humidity
%
barometer
mb
20260510170001 56 261 2.0 10.0 0.00 0.08 0.07 60 957.3
20260510164602 54 263 7.0 11.0 0.00 0.08 0.07 64 957.3
20260510163055 53 67 3.0 6.0 0.00 0.08 0.07 70 957.3
20260510161553 52 326 3.0 6.0 0.00 0.08 0.07 72 957.4
20260510160059 52 280 2.0 6.0 0.00 0.08 0.07 74 957.4
20260510154553 52 302 1.0 6.0 0.00 0.09 0.07 77 957.4
20260510153049 51 355 1.0 5.0 0.00 0.09 0.07 78 957.3
20260510151542 50 55 0.0 4.0 0.00 0.09 0.07 83 956.9
20260510150039 50 9 1.0 5.0 0.00 0.09 0.07 84 956.7
20260510144535 49 337 0.0 5.0 0.00 0.13 0.07 85 956.8
20260510143039 49 314 0.0 5.0 0.00 0.13 0.07 86 956.7
20260510141533 48 66 0.0 4.0 0.00 0.13 0.07 86 956.4
20260510140029 48 294 0.0 6.0 0.00 0.13 0.07 87 956.2
20260510134527 48 300 2.0 8.0 0.00 0.17 0.07 87 956.0
20260510133027 47 304 3.0 8.0 0.00 0.17 0.07 89 955.7
20260510131525 47 323 2.0 6.0 0.00 0.17 0.07 88 955.9
20260510130029 47 324 2.0 10.0 0.00 0.17 0.07 89 955.9
20260510124521 49 280 4.0 8.0 0.00 0.22 0.07 92 955.6
20260510123019 49 259 6.0 10.0 0.00 0.22 0.07 92 955.3
20260510121517 49 249 5.0 10.0 0.00 0.22 0.07 92 955.1
20260510120016 49 248 8.0 11.0 0.00 0.31 0.07 93 954.8
20260510114514 49 229 6.0 8.0 0.00 0.31 0.07 93 954.4
20260510113013 49 238 5.0 8.0 0.00 0.31 0.07 93 954.4
20260510111505 48 222 3.0 7.0 0.00 0.31 0.07 93 954.0
20260510110005 48 230 4.0 7.0 0.00 0.33 0.07 93 953.6
20260510104610 47 217 4.0 7.0 0.00 0.33 0.07 93 953.7
20260510103056 47 208 4.0 7.0 0.00 0.33 0.07 93 953.5
20260510101557 47 203 4.0 6.0 0.00 0.33 0.07 93 953.2
20260510100059 47 206 3.0 6.0 0.00 0.33 0.07 93 953.2
20260510094555 47 206 3.0 5.0 0.00 0.33 0.07 93 953.0
20260510093055 47 205 1.0 4.0 0.00 0.33 0.07 93 953.0
20260510091559 47 213 1.0 4.0 0.00 0.33 0.07 93 952.8
20260510084558 47 221 3.0 6.0 0.00 0.33 0.07 93 952.7
20260510083051 47 238 2.0 5.0 0.00 0.33 0.07 93 952.7
20260510081550 47 217 2.0 5.0 0.00 0.33 0.07 93 952.6
20260510080058 47 223 2.0 5.0 0.00 0.33 0.07 93 952.3
20260510074549 46 225 2.0 4.0 0.00 0.34 0.07 93 952.2
20260510073048 47 211 1.0 4.0 0.00 0.34 0.07 92 952.1
20260510071548 47 196 4.0 7.0 0.00 0.34 0.07 92 952.0
20260510070049 47 192 4.0 7.0 0.00 0.34 0.07 93 952.0
20260510064604 47 213 4.0 7.0 0.00 0.34 0.07 92 952.1
20260510063047 47 194 4.0 7.0 0.00 0.34 0.07 92 951.9
20260510061547 47 208 4.0 8.0 0.00 0.34 0.07 92 952.4
20260510060043 48 202 5.0 10.0 0.01 0.34 0.07 92 952.1
20260510054539 48 201 6.0 11.0 0.02 0.34 0.07 92 952.3
20260510053040 48 179 6.0 13.0 0.05 0.34 0.07 92 952.4
20260510051534 48 190 7.0 11.0 0.07 0.34 0.07 92 952.6
20260510050032 48 185 7.0 10.0 0.06 0.33 0.06 92 953.0
20260510044533 48 200 4.0 9.0 0.05 0.32 0.05 92 953.0
20260510043027 48 254 8.0 11.0 0.02 0.28 0.02 92 953.3
20260510041524 49 289 6.0 13.0 0.00 0.27 0.00 92 953.2
20260510040024 49 265 6.0 9.0 0.00 0.27 0.00 92 953.2
20260510034520 49 275 7.0 14.0 0.00 0.27 0.27 93 953.2
20260510033019 49 192 4.0 8.0 0.00 0.27 0.27 92 952.0
20260510031519 49 192 4.0 8.0 0.00 0.27 0.27 92 952.0
20260510030018 49 219 6.0 8.0 0.00 0.27 0.27 92 952.0
20260510024517 49 202 5.0 8.0 0.00 0.27 0.27 92 952.1
20260510023018 49 202 5.0 11.0 0.00 0.27 0.27 92 951.7
20260510021617 49 156 4.0 10.0 0.00 0.27 0.27 92 951.5
20260510020016 49 184 5.0 10.0 0.00 0.27 0.27 92 951.6
20260510014517 49 194 6.0 10.0 0.00 0.27 0.27 92 951.3
20260510013020 49 198 5.0 10.0 0.00 0.27 0.27 92 951.2
20260510011520 49 196 6.0 10.0 0.00 0.27 0.27 92 951.3
20260510010014 50 198 5.0 12.0 0.00 0.27 0.27 91 951.0
20260510004516 50 196 5.0 10.0 0.00 0.27 0.27 91 950.9
20260510003012 50 169 4.0 8.0 0.00 0.27 0.27 91 950.8
20260510001512 50 184 4.0 7.0 0.00 0.27 0.27 90 950.8
20260510000011 51 180 4.0 6.0 0.00 0.27 0.27 90 950.8
20260509234518 51 193 4.0 7.0 0.00 0.27 0.27 89 950.5
20260509233023 52 187 5.0 11.0 0.00 0.27 0.27 89 950.5
20260509231508 52 185 6.0 11.0 0.00 0.27 0.27 90 950.2
20260509230008 52 203 5.0 10.0 0.00 0.27 0.27 90 950.3
20260509224508 52 186 5.0 11.0 0.00 0.27 0.27 90 950.5
20260509223006 52 194 7.0 13.0 0.00 0.27 0.27 90 950.6
20260509221505 52 223 6.0 10.0 0.00 0.27 0.27 91 950.5
20260509220006 52 196 7.0 12.0 0.00 0.27 0.27 91 950.5
20260509214601 52 186 5.0 12.0 0.00 0.27 0.27 91 950.5
20260509213054 51 167 7.0 12.0 0.00 0.27 0.27 92 950.7
20260509211559 51 204 6.0 11.0 0.00 0.27 0.27 92 950.7
20260509210104 51 177 7.0 12.0 0.00 0.27 0.27 92 950.8
20260509204547 51 201 7.0 14.0 0.00 0.27 0.27 92 950.9
20260509203046 50 212 7.0 11.0 0.00 0.27 0.27 92 951.1
20260509201554 50 204 7.0 11.0 0.00 0.27 0.27 92 951.2
20260509200045 50 207 6.0 10.0 0.00 0.27 0.27 92 951.3
20260509194540 50 207 7.0 12.0 0.00 0.27 0.27 92 951.6
20260509193044 50 191 6.0 12.0 0.00 0.27 0.27 92 951.7
20260509191539 50 222 8.0 12.0 0.00 0.27 0.27 92 951.8
20260509190035 49 203 4.0 9.0 0.00 0.27 0.27 92 951.9
20260509184540 49 201 5.0 10.0 0.00 0.27 0.27 93 951.8
20260509183035 49 190 5.0 10.0 0.00 0.27 0.27 93 951.8
20260509181529 49 193 6.0 13.0 0.00 0.27 0.27 93 951.8
20260509180028 49 177 6.0 9.0 0.00 0.27 0.27 93 951.8
20260509174527 49 179 6.0 11.0 0.00 0.27 0.27 93 951.7
20260509173029 49 198 6.0 10.0 0.00 0.27 0.27 93 951.7
20260509171532 48 210 6.0 9.0 0.00 0.27 0.27 93 951.7